This demonstration page uses our WeatherBlox Daily Observations layout. Learn more.

Left ArrowRight Arrow

Hourly Observations for May 3, 2018

Temp ( °F °C ) Dew Point ( °F °C ) Humidity (%) Winds ( mph kmh ) Pressure ( in mb ) Visibility ( mi km ) Precip ( " mm )
12:41 am 00:41 Cloudy 50 10 49 9.4 96 96 NE 8 13 29.91 1013 7 11 0.00 0.00
12:53 am 00:53 Mostly Cloudy 50 10 49 9.4 96 96 NE 8 13 29.90 1013 7 11 0.00 0.00
1:12 am 01:12 Partly Cloudy 50 10 48 9 94 94 NE 7 11 29.88 1012 7 11 0.00 0.00
1:53 am 01:53 Mostly Cloudy with Mist and Fog 50 10 49 9.4 96 96 ENE 9 15 29.86 1011 6 10 0.00 0.00
2:05 am 02:05 Mostly Cloudy with Mist and Fog 50 10 49 9.4 96 96 ENE 8 13 29.85 1011 6 10 0.00 0.00
2:53 am 02:53 Cloudy with Mist and Fog 49 9.4 48 8.9 97 97 ENE 9 15 29.83 1010 5 8 0.00 0.00
3:00 am 03:00 Cloudy with Mist and Fog 48 9 48 9 100 100 E 6 9 29.83 1010 5 8 0.00 0.00
3:22 am 03:22 Cloudy with Mist and Fog 50 10 49 9.4 96 96 ENE 6 9 29.83 1010 4 6 0.00 0.00
3:40 am 03:40 Cloudy with Mist and Fog 50 10 50 10 100 100 ENE 6 9 29.85 1011 4 6 0.00 0.00
3:53 am 03:53 Cloudy with Mist and Fog 50 10 50 10 100 100 NE 6 9 29.84 1010 4 6 0.00 0.00
4:53 am 04:53 Cloudy with Mist and Fog 50 10 50 10 100 100 N 10 17 29.85 1011 3 4 0.00 0.00
5:08 am 05:08 Cloudy with Mist and Fog 50 10 50 10 100 100 NNE 9 15 29.85 1011 1 2 0.00 0.00
5:50 am 05:50 Cloudy with Light Rain 48 9 48 9 100 100 N 14 22 29.85 1011 2 3 0.00 0.00
5:53 am 05:53 Cloudy with Light Rain 49 9.4 49 9.4 100 100 NNE 15 24 29.84 1011 2 3 0.02 0.51
6:08 am 06:08 Cloudy with Light Rain 48 9 48 9 100 100 NE 12 19 29.85 1011 3 4 0.00 0.00
6:21 am 06:21 Cloudy with Mist and Fog 49 9.4 49 9.4 100 100 NE 10 17 29.85 1011 3 5 0.00 0.03
6:29 am 06:29 Cloudy with Nearby Thunderstorms 49 9.4 49 9.4 100 100 NE 10 17 29.85 1011 4 6 0.00 0.03
6:49 am 06:49 Cloudy with Nearby Thunderstorms 50 10 50 10 100 100 N 9 15 29.88 1012 3 4 0.00 0.00
6:53 am 06:53 Cloudy with Nearby Thunderstorms 50 10 50 10 100 100 NNE 10 17 29.86 1011 1 2 0.01 0.25
7:01 am 07:01 Cloudy with Light Rain 50 10 50 10 100 100 NNE 12 19 29.85 1011 1 2 0.00 0.03
7:26 am 07:26 Cloudy with Mist and Fog 50 10 50 10 100 100 ENE 13 20 29.85 1011 3 4 0.00 0.00
7:41 am 07:41 Cloudy with Mist and Fog 50 10 50 10 100 100 ENE 12 19 29.85 1011 3 5 0.00 0.03
7:53 am 07:53 Cloudy with Mist and Fog 50 10 50 10 100 100 NE 12 19 29.84 1011 3 4 0.00 0.03
8:53 am 08:53 Cloudy with Mist and Fog 51 10.6 51 10.6 100 100 NE 13 20 29.80 1009 2 3 0.00 0.00
9:35 am 09:35 Cloudy with Mist and Fog 52 11.1 52 11.1 100 100 ENE 16 26 29.77 1008 2 3 0.00 0.00
9:53 am 09:53 Cloudy with Mist and Fog 53 11.7 53 11.7 100 100 ENE 13 20 29.75 1008 2 2 0.00 0.00
10:05 am 10:05 Cloudy with Mist and Fog 54 12.2 54 12.2 100 100 E 13 20 29.74 1007 3 4 0.00 0.00
10:20 am 10:20 Cloudy with Mist and Fog 55 13 55 13 100 100 E 14 22 29.74 1007 3 5 0.00 0.00
10:53 am 10:53 Cloudy with Mist and Fog 56 13.3 56 13.3 100 100 E 6 9 29.78 1008 3 5 0.00 0.00
11:53 am 11:53 Cloudy with Mist and Fog 59 15 58 14.4 96 96 E 9 15 29.75 1008 6 10 0.00 0.00
12:49 pm 12:49 Cloudy with Light Rain 57 14 57 14 100 100 WSW 8 13 29.77 1008 2 3 0.00 0.00
12:53 pm 12:53 Cloudy with Light Rain 58 14.4 58 14.4 100 100 W 10 17 29.79 1009 2 3 0.02 0.51
1:02 pm 13:02 Cloudy with Light Rain 57 14 57 14 100 100 W 9 15 29.77 1008 3 5 0.00 0.00
1:19 pm 13:19 Cloudy with Light Rain 56 13.3 56 13.3 100 100 NNW 14 22 29.77 1008 2 3 0.00 0.03
1:23 pm 13:23 Cloudy with Light Rain 56 13.3 56 13.3 100 100 NNW 14 22 29.77 1008 2 3 0.00 0.03
1:40 pm 13:40 Cloudy with Light Rain 55 13 55 13 100 100 N 9 15 29.77 1008 2 3 0.00 0.00
1:53 pm 13:53 Cloudy with Light Rain 56 13.3 56 13.3 100 100 NNW 12 19 29.79 1009 2 3 0.01 0.25
2:04 pm 14:04 Cloudy with Light Rain 56 13.3 56 13.3 100 100 N 13 20 29.77 1008 3 5 0.00 0.03
2:32 pm 14:32 Cloudy 55 13 55 13 100 100 N 15 24 29.77 1008 8 13 0.00 0.00
2:41 pm 14:41 Cloudy 57 13.9 56 13.3 96 96 N 14 22 29.77 1008 9 14 0.00 0.03
2:53 pm 14:53 Cloudy 57 13.9 55 12.8 93 93 N 12 19 29.80 1009 10 16 0.00 0.03
3:48 pm 15:48 Cloudy 59 15 55 13 88 88 NNE 17 28 29.77 1008 10 16 0.00 0.00
3:53 pm 15:53 Cloudy 60 15.6 57 13.9 90 90 undefined N/A 29.80 1009 10 16 0.00 0.00
4:14 pm 16:14 Cloudy 59 15 55 13 88 88 NNE 18 30 29.77 1008 10 16 0.00 0.00
4:34 pm 16:34 Cloudy 57 14 54 12 88 88 NNE 18 30 29.77 1008 10 16 0.00 0.00
4:53 pm 16:53 Cloudy 56 13.3 53 11.7 90 90 N 18 30 29.81 1010 10 16 0.00 0.00
5:40 pm 17:40 Cloudy 55 13 52 11 88 88 N 20 31 29.80 1009 10 16 0.00 0.00
5:50 pm 17:50 Cloudy 55 13 52 11 88 88 N 21 33 29.80 1009 10 16 0.00 0.00
5:53 pm 17:53 Cloudy 56 13.3 51 10.6 84 84 N 21 33 29.83 1010 10 16 0.00 0.00
6:00 pm 18:00 Cloudy 55 13 52 11 88 88 N 20 31 29.80 1009 10 16 0.00 0.00
6:53 pm 18:53 Cloudy 55 12.8 50 10 83 83 N 18 30 29.84 1011 10 16 0.00 0.00
7:53 pm 19:53 Cloudy 55 12.8 49 9.4 80 80 N 14 22 29.89 1012 10 16 0.00 0.00
8:03 pm 20:03 Cloudy 55 12.8 49 9.4 80 80 N 15 24 29.88 1012 10 16 0.00 0.00
8:53 pm 20:53 Cloudy 54 12.2 49 9.4 83 83 NNW 10 17 29.93 1013 10 16 0.00 0.00
9:53 pm 21:53 Cloudy 53 11.7 48 8.9 83 83 NNW 14 22 29.96 1015 10 16 0.00 0.00
10:53 pm 22:53 Clear 51 10.6 47 8.3 86 86 NW 9 15 29.98 1015 10 16 0.00 0.00
11:53 pm 23:53 Cloudy 51 10.6 49 9.4 92 92 NW 12 19 29.99 1016 10 16 0.00 0.00

Powered by AerisWeather